Location: Dana
(41.8364°N, 106.7042°W)
Time: 15:23:05
(UTC+00:00)

SR - Pass Details

Date: 10 May 2026
Orbit: 567 x 853 km, 66.7° (Epoch: 7 June)

Event Time Altitude Azimuth Distance (km) Brightness Sun altitude
Rises 14:04:47 0° 167° (SSE) 2,912 ? 23.0°
Reaches altitude 10° 14:07:34 10° 148° (SSE) 2,060 ? 23.6°
Maximum altitude 14:10:45 18° 105° (ESE) 1,637 ? 24.1°
Drops below altitude 10° 14:14:07 10° 62° (ENE) 2,198 ? 24.8°
Sets 14:17:12 0° 45° (NE) 3,185 ? 25.3°
